NIMIQ 5

Last updated on Tue Sep 22 2026 00:03:11 GMT+0000 (Coordinated Universal Time)

1 35873U 09050A 26264.54601094 .00000000 00000+0 00000+0 0 9997 2 35873 0.0242 166.3634 0002849 15.3231 302.6068 1.00269672 62313
UTC large
Height (km)
Speed (km/s)
/
Latitude / Longitude
Inclination (degrees)
Orbital Period (minutes)
Azimuth
Elevation
Range (km)
Doppler Factor

Next 0 passes for location: London (51.5072 / 0.1276)

No passes found over London.
NIMIQ 5